GFSNW_850_dewp_324.txt.gz
Dewpoint
-12 0 0 0 0 -1 -2 -3 -5 -6 -5 -6 -7 -5 -6 -7 -8 -7 -8 -7 -7 -6 -7 -8 -8 -7 -9 -12 -10 -5 -7 -6 -6 -7 -8 -9 -10 -9 -10 -7 -3 -2 -4 -8
-13 -0 1 2 1 -0 -2 -2 -4 -5 -5 -3 -4 -6 -8 -7 -8 -8 -7 -7 -8 -7 -7 -6 -9 -8 -11 -10 -9 -5 -8 -7 -7 -9 -6 -11 -10 -11 -10 -9 -8 -6 -3 -8
-14 1 0 2 1 0 -1 -1 -1 -3 -5 -6 -4 -4 -6 -6 -8 -8 -7 -7 -7 -6 -7 -8 -6 -8 -10 -10 -9 -7 -9 -7 -8 -7 -5 -9 -10 -11 -12 -9 -7 -8 -10 -12
-10 1 0 2 1 0 1 -0 -1 -3 -1 -3 -4 -5 -6 -6 -5 -8 -7 -6 -6 -6 -6 -7 -8 -10 -9 -11 -8 -9 -10 -8 -10 -9 -8 -10 -10 -11 -12 -11 -11 -9 -10 -12
-1 1 0 2 1 1 1 1 0 -3 -2 -4 -5 -6 -5 -5 -5 -6 -7 -6 -9 -7 -6 -7 -5 -7 -8 -9 -8 -7 -10 -11 -9 -7 -8 -8 -10 -13 -13 -14 -14 -13 -11 -11
2 1 0 2 2 2 1 1 -0 -1 -2 -4 -4 -4 -5 -4 -5 -7 -8 -8 -7 -7 -8 -9 -9 -8 -8 -7 -6 -7 -9 -10 -8 -8 -9 -8 -7 -12 -12 -13 -14 -14 -13 -14
1 1 1 1 2 2 1 -0 -1 -2 -1 -3 -3 -3 -4 -5 -6 -6 -8 -7 -7 -8 -8 -7 -9 -8 -8 -8 -7 -8 -9 -10 -9 -7 -9 -8 -11 -13 -13 -14 -14 -15 -15 -15
1 1 1 1 2 2 2 0 -1 -1 -1 -3 -3 -5 -5 -5 -6 -7 -8 -8 -7 -7 -7 -9 -10 -14 -14 -10 -9 -12 -13 -11 -10 -9 -10 -11 -12 -13 -13 -13 -13 -14 -15 -15
2 2 2 2 2 2 1 0 -0 -1 -2 -2 -4 -4 -4 -5 -7 -8 -8 -9 -8 -6 -9 -9 -9 -13 -10 -11 -12 -13 -14 -13 -10 -10 -11 -11 -11 -15 -15 -15 -12 -15 -15 -16
2 2 2 2 2 1 1 0 -0 -1 -2 -2 -3 -3 -3 -6 -6 -7 -8 -6 -6 -8 -9 -9 -10 -12 -11 -10 -10 -11 -10 -11 -11 -10 -10 -12 -15 -15 -15 -11 -12 -16 -16 -16
2 3 3 2 2 1 1 0 -1 -1 -1 -2 -2 -3 -4 -5 -5 -6 -9 -7 -8 -7 -7 -9 -12 -9 -11 -9 -11 -10 -10 -10 -11 -13 -10 -11 -16 -17 -14 -15 -16 -16 -16 -16
2 3 2 2 2 1 0 -1 -1 -1 -1 -2 -3 -3 -4 -5 -5 -5 -5 -7 -7 -7 -6 -8 -8 -8 -10 -9 -10 -14 -10 -13 -12 -13 -13 -16 -15 -16 -16 -16 -16 -16 -16 -16
3 3 2 2 2 1 0 -1 -2 -2 -2 -4 -4 -5 -5 -5 -5 -6 -6 -5 -5 -6 -6 -7 -9 -8 -9 -9 -10 -14 -15 -16 -14 -15 -17 -17 -16 -15 -17 -16 -16 -16 -16 -16
2 2 2 2 1 0 -0 -2 -4 -3 -4 -5 -7 -6 -5 -5 -6 -6 -8 -7 -7 -7 -7 -10 -9 -11 -12 -13 -15 -15 -17 -17 -17 -16 -18 -16 -16 -18 -17 -17 -17 -16 -16 -16
2 2 2 1 0 -0 -0 -4 -5 -4 -6 -5 -7 -7 -7 -8 -10 -21 -15 -11 -10 -9 -11 -9 -10 -14 -15 -17 -18 -19 -20 -19 -19 -17 -19 -18 -19 -18 -17 -17 -17 -17 -17 -17
1 2 1 1 -0 -1 -3 -5 -5 -5 -5 -6 -6 -8 -9 -16 -21 -24 -19 -21 -20 -11 -11 -14 -15 -16 -14 -16 -18 -21 -20 -20 -19 -20 -19 -19 -18 -18 -18 -18 -18 -18 -17 -18
2 1 1 0 -1 -2 -4 -5 -5 -6 -5 -6 -7 -8 -10 -16 -21 -26 -21 -15 -13 -12 -14 -16 -17 -18 -18 -19 -19 -21 -21 -20 -20 -21 -21 -19 -19 -19 -20 -19 -19 -18 -18 -18
1 1 0 -1 -4 -4 -5 -6 -6 -7 -6 -7 -7 -9 -14 -25 -18 -17 -19 -14 -14 -15 -16 -17 -19 -22 -22 -21 -22 -22 -21 -21 -21 -21 -21 -21 -21 -20 -20 -19 -19 -19 -18 -18
0 -0 -1 -4 -5 -5 -6 -7 -7 -7 -7 -10 -13 -12 -13 -24 -18 -18 -17 -16 -15 -18 -18 -19 -21 -22 -21 -22 -22 -22 -23 -23 -23 -22 -22 -22 -21 -21 -20 -20 -19 -19 -19 -18
-0 -1 -4 -5 -6 -7 -7 -7 -8 -10 -12 -14 -16 -19 -17 -19 -17 -17 -17 -17 -17 -17 -19 -22 -22 -22 -22 -22 -22 -22 -22 -22 -23 -23 -23 -23 -23 -22 -21 -20 -20 -19 -19 -18
-2 -3 -5 -7 -7 -7 -7 -11 -12 -14 -15 -17 -18 -18 -19 -19 -17 -17 -19 -17 -18 -16 -18 -19 -21 -22 -22 -22 -22 -23 -24 -23 -23 -23 -23 -23 -23 -22 -22 -21 -20 -19 -19 -19
-2 -3 -7 -7 -8 -9 -10 -13 -15 -14 -14 -18 -18 -19 -19 -18 -18 -18 -18 -17 -18 -17 -20 -21 -21 -24 -23 -23 -23 -24 -26 -26 -24 -24 -25 -24 -23 -22 -22 -21 -20 -20 -19 -19
-4 -5 -8 -9 -12 -9 -9 -11 -14 -15 -17 -18 -19 -19 -19 -19 -18 -19 -18 -17 -18 -19 -20 -19 -23 -23 -23 -23 -23 -24 -25 -26 -25 -25 -25 -26 -25 -23 -22 -21 -21 -20 -20 -19
-5 -8 -9 -9 -11 -12 -13 -13 -14 -18 -18 -20 -19 -20 -19 -20 -19 -22 -18 -21 -21 -19 -20 -21 -23 -24 -25 -25 -24 -24 -26 -26 -25 -25 -26 -26 -26 -25 -22 -22 -21 -20 -20 -20
-9 -9 -9 -13 -17 -17 -18 -18 -18 -19 -20 -20 -20 -20 -20 -21 -21 -24 -23 -21 -19 -21 -20 -23 -24 -25 -25 -24 -24 -25 -26 -26 -25 -25 -26 -26 -26 -24 -23 -22 -21 -21 -21 -20
-12 -14 -16 -16 -17 -18 -18 -18 -19 -20 -19 -20 -21 -21 -20 -21 -22 -22 -21 -21 -20 -23 -25 -25 -25 -25 -25 -25 -25 -25 -26 -26 -25 -25 -26 -27 -26 -24 -23 -22 -22 -22 -21 -21
-15 -17 -16 -16 -16 -17 -18 -19 -20 -20 -21 -20 -21 -21 -22 -25 -23 -22 -26 -23 -24 -25 -25 -24 -25 -25 -25 -25 -25 -25 -26 -25 -25 -26 -27 -27 -25 -24 -24 -23 -22 -22 -22 -21

GFSNW_850_dewp_327.txt.gz
Dewpoint
-24 -11 -0 -0 -1 -1 -2 -1 -2 -5 -5 -6 -7 -4 -5 -8 -9 -9 -9 -8 -8 -7 -8 -8 -9 -10 -13 -15 -12 -6 -10 -8 -6 -9 -8 -10 -10 -9 -9 -8 -5 -5 -2 -6
-23 -6 0 0 -1 -1 -2 1 -2 -4 -4 -1 -3 -5 -6 -8 -8 -9 -8 -7 -9 -9 -7 -6 -10 -11 -13 -12 -11 -6 -7 -10 -9 -15 -7 -10 -10 -10 -11 -9 -7 -6 -4 -7
-18 -1 0 0 -0 -0 -1 1 1 -2 -4 -4 -3 -2 -4 -6 -8 -8 -8 -8 -9 -7 -7 -10 -7 -8 -10 -11 -11 -8 -8 -9 -9 -9 -9 -7 -8 -10 -12 -11 -7 -8 -9 -9
-7 1 0 0 1 1 -1 1 1 -2 0 -1 -2 -4 -4 -5 -4 -7 -8 -7 -8 -7 -5 -8 -9 -11 -10 -10 -9 -7 -9 -9 -12 -12 -10 -9 -10 -11 -11 -11 -11 -9 -10 -10
0 1 0 1 2 1 0 1 1 -1 -1 -2 -3 -3 -3 -5 -5 -5 -6 -6 -9 -10 -6 -7 -5 -7 -8 -8 -11 -7 -8 -11 -10 -8 -9 -8 -7 -12 -12 -12 -13 -12 -11 -10
1 1 1 1 2 2 1 1 -0 -0 -1 -2 -3 -3 -4 -3 -5 -6 -7 -8 -8 -8 -9 -10 -10 -10 -9 -6 -6 -7 -6 -8 -10 -12 -8 -8 -7 -11 -13 -13 -14 -13 -12 -13
1 1 1 2 2 2 2 1 0 -2 -1 -1 -2 -2 -3 -2 -5 -5 -7 -7 -8 -9 -8 -8 -9 -10 -8 -7 -7 -7 -6 -8 -10 -9 -8 -11 -10 -13 -14 -14 -14 -14 -14 -14
0 1 1 2 2 2 2 2 1 -1 -0 -2 -2 -2 -2 -4 -4 -6 -7 -8 -10 -9 -8 -8 -10 -14 -12 -11 -9 -8 -8 -10 -11 -9 -12 -10 -11 -12 -13 -13 -12 -15 -14 -16
-7 0 2 2 2 2 2 2 1 -0 -1 -1 -2 -3 -2 -3 -4 -6 -8 -9 -9 -7 -9 -9 -7 -11 -14 -13 -13 -12 -13 -11 -9 -10 -9 -11 -10 -14 -15 -15 -11 -16 -16 -16
-9 -5 2 3 2 2 2 1 1 -0 -2 -1 -2 -2 -1 -4 -5 -6 -8 -9 -8 -7 -9 -8 -9 -11 -13 -11 -10 -11 -10 -9 -9 -10 -10 -13 -14 -15 -14 -10 -13 -16 -16 -16
-4 -3 -1 2 2 2 2 1 1 -0 -1 -1 -1 -2 -2 -4 -4 -4 -8 -7 -6 -8 -7 -8 -11 -11 -11 -10 -13 -9 -10 -9 -11 -9 -10 -10 -16 -17 -13 -15 -16 -16 -16 -15
-3 2 2 2 2 2 2 1 0 -1 -2 -1 -1 -2 -2 -3 -3 -4 -5 -9 -8 -9 -7 -7 -8 -8 -9 -8 -9 -13 -9 -11 -10 -11 -12 -16 -16 -16 -15 -16 -17 -17 -16 -16
-4 1 2 2 1 2 2 1 -0 -1 -2 -2 -3 -3 -4 -4 -4 -5 -5 -7 -7 -5 -5 -6 -7 -7 -10 -9 -13 -11 -14 -16 -13 -14 -15 -16 -16 -15 -17 -16 -17 -17 -17 -16
-1 1 1 1 1 2 1 1 -0 -2 -3 -4 -5 -7 -5 -5 -5 -5 -5 -6 -6 -7 -6 -6 -7 -9 -12 -11 -14 -14 -16 -17 -16 -14 -18 -16 -17 -18 -18 -18 -18 -18 -17 -17
1 1 1 0 1 1 1 0 -1 -3 -3 -3 -5 -7 -7 -7 -7 -8 -11 -9 -7 -9 -11 -10 -12 -12 -13 -15 -17 -16 -19 -18 -16 -15 -19 -18 -19 -18 -17 -18 -18 -18 -17 -17
0 0 0 0 1 1 1 -2 -3 -4 -3 -5 -5 -8 -11 -12 -12 -14 -11 -11 -11 -11 -11 -12 -14 -16 -14 -13 -15 -20 -20 -20 -20 -19 -20 -19 -19 -18 -18 -18 -18 -18 -17 -17
0 0 0 -0 -0 1 -1 -2 -4 -5 -5 -6 -5 -7 -11 -13 -18 -23 -17 -12 -12 -12 -13 -15 -16 -17 -16 -16 -15 -21 -21 -21 -20 -20 -20 -20 -18 -19 -20 -20 -19 -19 -18 -18
0 0 -0 -1 -2 -2 -3 -4 -5 -5 -5 -6 -6 -8 -11 -14 -14 -14 -18 -13 -13 -14 -15 -16 -18 -19 -19 -17 -21 -22 -21 -21 -20 -21 -21 -21 -21 -21 -21 -20 -20 -20 -19 -19
-0 0 -1 -2 -4 -5 -6 -6 -6 -6 -6 -7 -10 -8 -9 -22 -17 -16 -15 -14 -14 -16 -17 -18 -19 -19 -17 -21 -22 -22 -22 -22 -22 -22 -23 -22 -22 -22 -21 -21 -20 -20 -20 -19
-0 -1 -3 -5 -6 -6 -7 -8 -8 -7 -9 -12 -13 -15 -13 -16 -17 -16 -15 -15 -15 -15 -18 -21 -19 -19 -22 -22 -22 -22 -23 -23 -23 -23 -22 -22 -23 -23 -22 -22 -21 -20 -20 -19
-2 -3 -5 -7 -8 -7 -7 -10 -9 -12 -12 -14 -16 -16 -17 -17 -16 -15 -17 -16 -16 -15 -17 -17 -18 -19 -22 -22 -22 -23 -24 -25 -24 -23 -24 -24 -23 -23 -23 -22 -21 -20 -20 -20
-2 -3 -7 -8 -8 -8 -8 -9 -13 -12 -11 -16 -17 -17 -17 -17 -17 -17 -17 -16 -16 -16 -19 -18 -18 -21 -22 -23 -23 -23 -24 -25 -26 -25 -24 -25 -25 -25 -24 -22 -22 -21 -20 -20
-4 -4 -7 -8 -10 -8 -8 -9 -12 -13 -16 -17 -17 -17 -17 -18 -17 -17 -17 -16 -16 -19 -18 -18 -20 -22 -22 -24 -24 -24 -24 -25 -26 -25 -25 -25 -26 -26 -26 -23 -22 -21 -21 -20
-4 -6 -7 -7 -9 -9 -11 -11 -13 -17 -17 -17 -17 -18 -17 -18 -18 -19 -17 -19 -20 -17 -17 -18 -21 -23 -25 -26 -25 -24 -24 -25 -26 -25 -25 -25 -26 -27 -26 -23 -22 -22 -21 -20
-8 -7 -7 -12 -16 -17 -17 -17 -18 -19 -18 -19 -19 -19 -18 -19 -19 -21 -19 -18 -17 -18 -18 -21 -22 -24 -26 -26 -25 -24 -25 -25 -26 -25 -25 -26 -27 -27 -25 -23 -23 -22 -22 -21
-12 -14 -15 -16 -16 -17 -17 -18 -19 -19 -19 -19 -18 -19 -18 -19 -19 -19 -18 -18 -18 -19 -22 -22 -23 -25 -25 -25 -25 -25 -25 -26 -26 -25 -25 -26 -27 -27 -25 -23 -23 -23 -22 -22
-15 -16 -15 -15 -15 -16 -17 -17 -19 -19 -18 -18 -19 -19 -19 -22 -20 -20 -21 -19 -21 -22 -22 -22 -23 -25 -25 -25 -25 -25 -25 -26 -26 -25 -26 -27 -27 -26 -25 -24 -23 -23 -23 -22

GFSNW_850_dewp_330.txt.gz
Dewpoint
-20 -17 -1 0 -0 -1 -2 -0 1 -4 -5 -3 -6 -2 -3 -7 -8 -9 -9 -9 -7 -6 -7 -6 -8 -9 -12 -12 -10 -7 -7 -7 -6 -8 -9 -10 -10 -11 -11 -8 -9 -8 -6 -8
-19 -12 1 0 -0 -0 -1 1 0 -3 -4 1 -1 -4 -4 -7 -7 -7 -8 -7 -8 -8 -7 -7 -8 -8 -12 -11 -10 -8 -5 -8 -8 -9 -7 -10 -7 -11 -12 -11 -8 -7 -6 -8
-18 -4 0 -0 0 1 -1 1 2 -1 -3 -4 -2 -1 -3 -4 -8 -7 -7 -7 -8 -6 -6 -8 -6 -7 -9 -10 -10 -8 -6 -7 -9 -8 -10 -10 -8 -11 -12 -12 -7 -9 -9 -10
-18 -2 1 0 1 1 0 1 1 -2 1 -1 -1 -2 -3 -3 -4 -7 -8 -6 -6 -6 -7 -6 -7 -9 -8 -9 -8 -7 -8 -6 -8 -10 -11 -9 -9 -11 -12 -12 -13 -10 -12 -10
-21 -2 1 1 1 2 2 1 0 -0 -0 -1 -1 -1 -1 -3 -4 -4 -5 -5 -6 -8 -6 -6 -6 -7 -8 -7 -7 -8 -8 -7 -10 -11 -9 -7 -7 -11 -13 -13 -14 -13 -13 -11
-22 -6 1 1 2 2 2 1 1 -0 -1 -2 -2 -2 -2 -3 -3 -3 -5 -6 -6 -6 -8 -9 -9 -9 -9 -8 -7 -6 -5 -7 -11 -11 -9 -10 -8 -12 -15 -16 -18 -17 -14 -16
-18 -17 -0 1 2 2 2 2 1 -1 -1 -1 -1 -2 -2 -2 -3 -2 -5 -6 -4 -5 -8 -9 -9 -9 -9 -8 -8 -7 -7 -8 -8 -10 -13 -10 -15 -14 -16 -15 -18 -17 -16 -15
-10 -18 -10 1 2 2 2 2 2 -0 -0 -2 -2 -2 -2 -2 -2 -3 -3 -5 -8 -9 -9 -7 -8 -8 -9 -9 -8 -8 -8 -7 -9 -11 -12 -14 -11 -12 -13 -15 -15 -15 -16 -15
-10 -13 -14 -5 2 2 2 1 2 1 -1 -0 -2 -1 -2 -1 -1 -2 -5 -7 -9 -8 -8 -8 -7 -7 -10 -10 -8 -9 -9 -10 -10 -13 -9 -9 -13 -15 -15 -16 -14 -16 -16 -15
-8 -9 -12 -2 -1 2 2 2 1 1 -1 -1 -0 -0 -1 -2 -2 -2 -6 -8 -7 -7 -7 -5 -6 -7 -12 -10 -10 -9 -9 -10 -8 -9 -8 -10 -16 -15 -15 -14 -16 -16 -16 -15
3 -6 -5 -2 1 1 1 2 1 2 -0 -0 -0 -0 -1 -2 -3 -2 -4 -4 -5 -5 -6 -6 -7 -8 -8 -9 -12 -12 -10 -10 -11 -11 -7 -9 -15 -15 -13 -16 -15 -15 -16 -15
3 2 -0 -0 1 1 1 2 1 2 0 -0 -1 -1 -1 -1 -2 -3 -3 -4 -6 -7 -5 -5 -6 -6 -8 -9 -7 -13 -10 -13 -13 -13 -14 -17 -16 -16 -15 -15 -15 -16 -16 -17
2 2 1 0 0 0 1 1 1 0 -1 -1 -2 -2 -2 -2 -3 -3 -4 -4 -5 -5 -6 -5 -5 -6 -8 -7 -10 -11 -14 -15 -14 -15 -15 -15 -16 -15 -16 -17 -18 -17 -17 -16
2 2 1 1 0 0 0 1 0 1 -1 -3 -4 -5 -5 -5 -5 -4 -4 -5 -5 -5 -6 -6 -6 -6 -11 -10 -13 -13 -15 -17 -15 -14 -18 -14 -16 -16 -17 -18 -18 -18 -17 -18
2 1 1 0 0 0 0 -0 1 1 0 -2 -4 -6 -6 -6 -6 -6 -6 -6 -7 -7 -7 -7 -8 -11 -12 -14 -15 -14 -19 -19 -16 -15 -18 -18 -16 -18 -17 -19 -18 -18 -18 -18
2 1 1 0 0 -0 -0 -1 -0 -1 -2 -3 -4 -8 -11 -11 -9 -9 -9 -9 -9 -9 -9 -10 -14 -16 -13 -12 -13 -20 -19 -20 -20 -17 -19 -19 -19 -18 -18 -20 -19 -19 -18 -18
1 1 1 1 0 0 -1 -1 -2 -2 -3 -4 -5 -7 -13 -12 -12 -12 -11 -11 -12 -11 -12 -13 -13 -16 -16 -14 -14 -20 -20 -20 -20 -20 -21 -20 -19 -19 -20 -21 -20 -20 -19 -19
1 1 1 0 1 0 -2 -3 -4 -4 -4 -5 -5 -9 -11 -12 -12 -12 -13 -11 -13 -14 -15 -16 -16 -18 -17 -17 -20 -21 -21 -21 -20 -21 -21 -21 -21 -21 -21 -21 -20 -20 -20 -20
1 1 0 -0 -1 -3 -5 -5 -5 -5 -5 -6 -9 -7 -9 -13 -14 -13 -14 -13 -13 -16 -15 -16 -17 -17 -17 -22 -21 -21 -21 -21 -21 -21 -23 -23 -22 -22 -22 -22 -21 -21 -20 -20
0 -0 -1 -4 -5 -6 -6 -7 -7 -6 -8 -11 -13 -14 -13 -14 -13 -14 -14 -14 -14 -15 -18 -20 -18 -18 -22 -22 -21 -22 -23 -23 -23 -24 -23 -22 -23 -23 -23 -23 -22 -21 -21 -20
-1 -1 -5 -7 -7 -7 -7 -9 -8 -11 -12 -14 -15 -15 -15 -16 -13 -14 -16 -14 -15 -15 -18 -17 -19 -19 -23 -23 -23 -24 -24 -25 -25 -25 -25 -24 -24 -25 -25 -25 -24 -22 -21 -21
-1 -2 -7 -8 -7 -8 -7 -9 -12 -11 -11 -15 -15 -16 -16 -17 -16 -15 -16 -14 -16 -16 -19 -18 -19 -22 -22 -23 -24 -24 -24 -25 -25 -26 -26 -25 -25 -25 -25 -26 -26 -23 -22 -21
-3 -5 -7 -7 -9 -7 -8 -9 -10 -12 -15 -17 -17 -17 -17 -17 -16 -16 -16 -16 -16 -19 -19 -18 -21 -21 -22 -24 -24 -24 -24 -24 -24 -26 -26 -25 -25 -26 -26 -26 -26 -24 -22 -21
-3 -6 -8 -7 -8 -8 -9 -10 -12 -16 -16 -16 -17 -17 -16 -17 -17 -17 -16 -19 -19 -19 -20 -21 -25 -22 -24 -24 -26 -26 -25 -24 -25 -26 -26 -25 -25 -26 -27 -27 -24 -23 -23 -22
-6 -5 -5 -11 -15 -16 -17 -17 -17 -17 -17 -17 -17 -17 -18 -17 -19 -19 -19 -19 -20 -20 -21 -23 -21 -23 -24 -26 -26 -26 -25 -25 -25 -26 -26 -26 -25 -27 -28 -27 -24 -24 -23 -22
-12 -13 -14 -15 -16 -16 -17 -18 -18 -18 -17 -17 -18 -17 -17 -18 -18 -19 -19 -19 -20 -22 -24 -21 -22 -24 -25 -25 -26 -25 -25 -25 -25 -26 -26 -26 -26 -27 -27 -26 -24 -24 -23 -23
-14 -15 -14 -15 -15 -16 -16 -17 -18 -17 -17 -16 -16 -17 -18 -21 -19 -20 -21 -21 -23 -21 -21 -22 -23 -23 -25 -26 -26 -26 -26 -26 -25 -26 -26 -26 -27 -27 -26 -25 -24 -24 -23 -23

GFSNW_850_dewp_333.txt.gz
Dewpoint
-6 -18 -8 -0 -0 -1 -1 -1 -0 -4 -3 -4 -5 -3 -4 -7 -8 -9 -9 -9 -8 -7 -7 -7 -7 -8 -12 -12 -10 -9 -9 -6 -7 -9 -12 -12 -14 -13 -15 -11 -13 -12 -8 -8
-12 -17 -8 -0 -0 -0 -0 0 0 -2 -3 -1 -2 -4 -4 -6 -7 -8 -8 -8 -7 -8 -7 -9 -8 -8 -11 -11 -10 -10 -8 -9 -8 -12 -13 -10 -9 -14 -14 -16 -14 -13 -8 -10
-13 -16 -11 0 0 0 0 1 0 -1 -3 -3 -3 -3 -2 -3 -7 -7 -8 -7 -8 -7 -6 -7 -8 -7 -9 -11 -11 -10 -4 -6 -9 -10 -12 -14 -10 -13 -12 -13 -11 -13 -12 -11
-12 -17 -18 -1 1 1 1 1 -0 -2 -1 -2 -2 -2 -2 -3 -4 -7 -7 -7 -7 -7 -8 -6 -6 -8 -8 -9 -9 -7 -8 -7 -8 -8 -8 -10 -11 -11 -13 -12 -16 -13 -16 -13
-10 -11 -20 -5 1 2 2 1 0 0 -1 -1 -2 -2 -1 -2 -4 -5 -4 -6 -6 -6 -6 -7 -9 -8 -8 -7 -9 -9 -9 -7 -10 -9 -10 -11 -9 -9 -12 -14 -15 -15 -17 -16
1 -11 -11 -17 1 2 2 2 1 1 0 -1 -1 -2 -2 -2 -4 -4 -6 -6 -6 -6 -7 -8 -8 -9 -9 -9 -7 -6 -5 -7 -10 -8 -13 -12 -10 -11 -13 -17 -23 -19 -15 -18
4 1 -10 -12 -4 2 2 2 2 -0 0 -0 -1 -2 -3 -3 -2 -1 -3 -3 -3 -5 -5 -6 -7 -8 -8 -8 -8 -8 -5 -8 -8 -10 -15 -10 -16 -17 -17 -17 -20 -21 -18 -17
5 4 0 -6 -5 1 2 2 2 1 -0 0 -0 -1 -2 -1 -2 -1 -1 -2 -3 -3 -5 -5 -6 -8 -9 -8 -8 -8 -9 -8 -8 -9 -13 -14 -14 -12 -15 -16 -17 -20 -18 -18
5 5 4 -2 -3 0 2 2 2 2 -1 0 -0 -0 -0 -1 -0 -1 -1 -2 -2 -5 -5 -4 -6 -6 -9 -9 -6 -8 -8 -9 -8 -14 -12 -10 -17 -17 -16 -19 -13 -17 -17 -16
5 4 3 2 1 0 1 1 -0 2 -0 0 0 0 0 -1 -1 -2 -3 -6 -5 -6 -5 -4 -5 -6 -10 -9 -8 -7 -8 -9 -8 -8 -8 -10 -18 -17 -15 -14 -16 -16 -16 -15
3 3 2 2 2 1 0 0 0 1 0 0 1 0 -0 -1 -2 -2 -3 -4 -4 -5 -5 -4 -5 -5 -9 -9 -10 -9 -9 -8 -9 -11 -10 -8 -15 -14 -15 -18 -15 -15 -15 -16
3 3 3 2 2 1 0 0 1 1 1 1 0 1 0 0 0 -2 -3 -3 -5 -5 -5 -5 -5 -5 -8 -8 -7 -12 -9 -10 -9 -11 -12 -18 -15 -17 -17 -17 -16 -16 -17 -16
2 2 2 2 1 1 1 0 0 0 -0 -0 -1 -1 -1 -1 -1 -1 -2 -4 -4 -5 -5 -5 -5 -5 -5 -6 -6 -10 -13 -15 -13 -14 -15 -16 -16 -16 -16 -16 -18 -17 -17 -17
1 2 2 2 2 1 1 1 0 -0 -0 -2 -2 -3 -4 -3 -3 -3 -3 -4 -4 -4 -5 -6 -6 -6 -8 -8 -11 -11 -14 -15 -14 -14 -15 -15 -15 -16 -17 -18 -18 -18 -18 -19
-1 -0 1 2 2 2 1 1 0 -0 -0 -1 -4 -6 -7 -7 -6 -5 -5 -5 -6 -6 -6 -6 -7 -10 -10 -13 -13 -12 -17 -14 -14 -14 -17 -18 -17 -17 -17 -19 -19 -19 -19 -20
-5 -3 -0 1 2 2 1 1 0 -0 -0 -2 -5 -9 -11 -10 -8 -8 -8 -8 -8 -8 -9 -11 -14 -14 -12 -11 -12 -19 -19 -19 -19 -19 -19 -18 -18 -18 -18 -19 -20 -20 -19 -19
-5 -1 -0 1 2 1 1 0 -2 -1 -1 -3 -6 -9 -12 -11 -10 -10 -11 -10 -11 -11 -12 -13 -14 -14 -14 -13 -13 -19 -20 -20 -20 -19 -20 -21 -19 -19 -19 -20 -22 -21 -21 -19
-3 -0 0 1 1 1 0 -0 -1 -2 -3 -4 -5 -10 -11 -12 -11 -13 -12 -12 -12 -14 -15 -14 -15 -16 -15 -15 -19 -21 -21 -20 -20 -20 -22 -20 -20 -21 -22 -22 -22 -21 -21 -20
-1 -1 1 1 -0 -1 -2 -3 -4 -4 -4 -6 -7 -9 -9 -13 -13 -13 -13 -13 -14 -15 -16 -16 -17 -18 -17 -19 -20 -21 -21 -22 -21 -21 -22 -23 -22 -22 -23 -23 -22 -22 -21 -21
-1 -0 -0 -2 -4 -5 -5 -6 -5 -5 -6 -9 -12 -14 -13 -14 -13 -14 -13 -14 -16 -17 -19 -20 -21 -19 -21 -21 -21 -21 -22 -23 -22 -23 -23 -22 -22 -23 -24 -24 -23 -23 -22 -21
-2 -2 -3 -6 -7 -6 -6 -9 -9 -11 -13 -14 -15 -15 -15 -15 -13 -15 -15 -14 -15 -17 -19 -19 -21 -19 -23 -22 -21 -22 -24 -24 -24 -25 -26 -26 -25 -25 -25 -25 -25 -25 -24 -22
-2 -2 -7 -8 -7 -8 -9 -12 -14 -13 -12 -16 -16 -16 -16 -16 -15 -15 -16 -15 -16 -17 -19 -20 -20 -21 -22 -23 -23 -24 -24 -25 -25 -25 -25 -26 -26 -25 -25 -26 -26 -26 -26 -23
-4 -4 -7 -8 -9 -9 -10 -11 -13 -15 -16 -17 -17 -16 -17 -16 -16 -16 -15 -15 -17 -19 -20 -19 -21 -22 -22 -23 -24 -24 -24 -25 -24 -24 -25 -26 -26 -25 -25 -26 -27 -27 -26 -23
-4 -7 -7 -7 -9 -13 -15 -15 -16 -15 -16 -16 -17 -17 -16 -17 -16 -16 -16 -18 -19 -20 -20 -21 -26 -22 -22 -23 -24 -24 -26 -26 -24 -24 -25 -26 -26 -25 -26 -27 -27 -27 -25 -23
-6 -6 -6 -12 -17 -17 -17 -17 -17 -16 -16 -16 -17 -16 -17 -17 -17 -18 -19 -19 -20 -21 -21 -24 -22 -22 -24 -24 -25 -26 -26 -25 -25 -25 -26 -26 -26 -26 -26 -27 -27 -25 -24 -23
-11 -13 -15 -16 -17 -17 -17 -17 -17 -16 -16 -16 -17 -16 -16 -18 -18 -19 -19 -20 -20 -21 -24 -22 -22 -23 -23 -24 -25 -26 -26 -26 -25 -25 -26 -27 -26 -26 -28 -28 -26 -24 -24 -24
-15 -17 -16 -15 -16 -16 -17 -17 -17 -16 -15 -15 -16 -17 -18 -20 -19 -19 -21 -21 -23 -22 -22 -22 -24 -24 -23 -24 -26 -26 -26 -26 -26 -26 -26 -26 -26 -27 -27 -26 -25 -24 -24 -24